Regional Weather Roundup
Issued by NWS Wakefield, VA

Home | Current Version | Previous Version | Text Only | Print | Product List | Glossary Off
Versions: 1 2 3 4 5 6 7 8 9 10 11 12 13 14 15 16 17 18 19 20 21 22 23 24 25 26 27 28 29 30 31 32 33 34 35 36 37 38 39 40 41 42 43 44 45 46 47 48 49 50

000
ASUS41 KAKQ 220810
RWRAKQ

REGIONAL WEATHER ROUNDUP
NATIONAL WEATHER SERVICE WAKEFIELD VA
400 AM EDT FRI AUG 22 2014

Note: "fair" indicates few or no clouds below 12,000 feet with no
significant weather and/or obstructions to visibility. * = Denotes
station may not report precipitation (e.g., rain,snow,etc.),
thunder or fog.

VAZ042-051-052>054-056-220900-
NORTHERN VIRGINIA

CITY           SKY/WX    TMP DP  RH WIND       PRES   REMARKS
WASH NATIONAL  MOCLDY    76  65  68 W3        29.96F
DULLES         MOCLDY    67  66  97 CALM      29.97F
FORT BELVOIR   MOCLDY    70  68  94 CALM      29.96F FOG
QUANTICO       MOCLDY    76  66  71 N10       29.96F
FREDERICKSBRG* MOCLDY    74  74 100 CALM      29.95F
STAFFORD*      CLOUDY    71  71 100 CALM      30.00F
WARRENTON      FOG       69  69 100 CALM      29.96F VSB 1
CULPEPER*      MOCLDY   N/A N/A N/A CALM      29.97F HAZE
MANASSAS*      MOCLDY    70  70 100 CALM      29.97F
LEESBURG*      MOCLDY    70  68  94 CALM      29.99S
WINCHESTER     CLOUDY    68  66  94 CALM      29.98F
$$

VAZ048-049-060>072-079>083-220900-
CENTRAL AND SOUTH CENTRAL VIRGINIA...AND NORTH CENTRAL NORTH CAROLINA

CITY           SKY/WX    TMP DP  RH WIND       PRES   REMARKS
RICHMOND       PTCLDY    76  69  79 N3        29.96F
CHESTERFIELD*  SUNNY    N/A N/A N/A W5        29.98F
HANOVER        PTCLDY    72  69  90 CALM      29.98F
TAPPAHANNOCK*  PTCLDY    73  70  89 CALM      29.97S
CHARLOTTSVILLE MOCLDY    72  66  81 CALM      29.98F
ORANGE*        PTCLDY    70  68  94 N3        29.99S
LOUISA*          N/A     68  66  94 CALM      29.96F FOG
FARMVILLE*     PTCLDY    72  70  94 SW5       29.96F
SOUTH HILL*    PTCLDY    73  73 100 SW3       30.04F
ROANOKE RAPIDS MOSUNNY   72  72 100 CALM      29.99S
RALEIGH        PTCLDY    73  70  90 CALM      30.01F
$$

VAZ088>098-220900-
SOUTHEAST VIRGINIA

CITY           SKY/WX    TMP DP  RH WIND       PRES   REMARKS
NORFOLK        CLOUDY    80  72  76 NE3       29.95F
VIRGINIA BEACH CLOUDY    77  73  87 NE5       29.95S
NORFOLK NAVAL  CLOUDY    80  71  74 W7        29.96F
WEST POINT*    CLOUDY    78  74  88 CALM      29.97F
NEWPORT NEWS   CLOUDY    80  72  76 W7        29.96S
LANGLEY AFB    MOCLDY    78  76  93 NW6       29.94F
FORT EUSTIS    CLOUDY    77  77 100 NW5       29.94S
WILLIAMSBURG*  MOCLDY    79  72  78 NW5       29.97S
FRANKLIN*      MOCLDY    75  73  94 CALM      29.97S
WAKEFIELD      PTCLDY    75  71  87 CALM      29.96F
$$

VAZ020-022-025-037-045-220900-
WESTERN AND SOUTHWEST VIRGINIA

CITY           SKY/WX    TMP DP  RH WIND       PRES   REMARKS
STAUNTON*      MOCLDY    67  64  90 CALM      30.04S
HOT SPRINGS VA CLOUDY    62  62 100 W17       30.15F FOG
LYNCHBURG        N/A    N/A N/A N/A CALM      30.03F
DANVILLE       FOG       70  69  97 SW3       30.01F VSB 1/2
MARTINSVILLE   MOCLDY    68  68  99 CALM      30.05F FOG
ROANOKE        MOCLDY    70  65  84 W6        30.05F
BLACKSBURG     PTCLDY    64  64 100 CALM      30.12F FOG
DUBLIN*        PTCLDY    69  69 100 W6        30.11F
MARION*        CLOUDY    68  67  95 W9        30.16F
HILLSVILLE*    PTCLDY    64  64  97 SW5       30.13F
RICHLANDS*     MOSUNNY   72  69  91 W8        30.16S
WISE*          MOCLDY    70  70 100 W7        30.16F
ABINGDON*      CLOUDY    69  69 100 CALM      30.14S
$$

MDZ021>025-VAZ099-100-220900-
SOUTHERN MARYLAND AND THE DELMARVA PENINSULA

CITY           SKY/WX    TMP DP  RH WIND       PRES   REMARKS
PATUXENT RIVER CLOUDY    76  70  82 NW10      29.95S
BAY BRIDGE APT   N/A     75  68  78 W7        29.95S
LEONARDTOWN    CLOUDY    73  68  83 CALM      29.97F
DOVER          CLEAR     71  71 100 CALM      29.94R
GEORGETOWN     LGT RAIN  73  70  90 S9G21     29.96S
EASTON         PTCLDY    73  73 100 CALM      29.99S FOG
CAMBRIDGE      MOCLDY    73  70  88 CALM      29.94F
SALISBURY      LGT RAIN  74  70  87 CALM      29.96R
OCEAN CITY     LGT RAIN  76  72  87 SW12      29.94S
WALLOPS ISLAND CLOUDY    75  72  90 SW5       29.95F
ACCOMACK*      MOCLDY    72  70  94 S5        29.94F
$$

NCZ012>017-030>032-220900-
EASTERN NORTH CAROLINA

CITY           SKY/WX    TMP DP  RH WIND       PRES   REMARKS
ELIZABETH CITY MOCLDY    77  75  93 W5        29.95F FOG
AHOSKIE*       MOCLDY    73  70  92 CALM      29.98F
EDENTON*       MOCLDY    78  76  93 W3        29.97S
CURRITUCK*     MOCLDY    78  74  88 W3        29.96F
KILL DEVIL HLS MOCLDY    80  76  90 SW3       29.94F
MANTEO         MOCLDY    79  75  89 W3        29.96F
CAPE HATTERAS  MOCLDY    79  78  97 W6        29.97F
GOLDSBORO      MOCLDY    77  76  98 W3        29.98F
WASHINGTON     PTCLDY    75  74  94 CALM      29.98F
GREENVILLE     PTCLDY    77  75  94 CALM      30.00F
NEW BERN       CLOUDY    79  73  82 SW3       30.00F
WILMINGTON     PTCLDY    76  74  93 CALM      30.00F
$$

VAZ048-220900-
ELSEWHERE

CITY           SKY/WX    TMP DP  RH WIND       PRES   REMARKS
HARRISBURG PA  PTCLDY    68  65  90 CALM      29.97F FOG
BALTIMORE      PTCLDY    70  67  90 CALM      29.95S
ANNAPOLIS      PTCLDY    73  68  84 W6        29.95S
ANDREWS AFB    MOCLDY    73  67  81 NW2       29.96F
WILMINGTON DE  CLOUDY    72  68  87 NE18      29.98R
PHILADELPHIA   CLOUDY    70  66  87 E7        29.99S
WILDWOOD NJ*   MOCLDY    70  64  83 CALM      29.96S
ATLANTIC CITY  CLOUDY    68  67  96 NE13      29.98R
HENDERSON NC   CLEAR     72  69  92 CALM      30.01F
GREENSBORO     PTCLDY    73  68  84 CALM      30.02F
ROCKY MOUNT    MOCLDY    74  72  93 CALM      30.00S FOG
FAYETTEVILLE   MOCLDY    78  70  76 SW5       29.99F
CHARLOTTE      CLOUDY    76  69  79 CALM      30.04F
$$

VAZ100-220900-
MARINE

STATION/POSITION TIME  TEMP    WIND        PRES    WAVE   SWELL
                       AIR SEA DIR/SP/G            HT/PER HT/PER
                 (UTC) (F)     (DEG/KT/KT) (MB)    (FT/S) (FT/S)
44066 TX TWR #4  0800   71 73   70/  6/  8 1015.7F   3/ 7   3/ 7
CAPE MAY NJ      0800   71 80  160/  5/  7 1013.7R
LEWES DE         0800   72 73  130/  7/  9 1013.8F
15NM E FENWICK I 0800   76 75              1013.7F   2/ 7
OCEAN-CITY-INLET 0800   76 77  210/ 10/ 11 1013.6F
WACHAPREAGUE VA  0800   76 82  190/  8/ 11 1014.0F
THOMAS POINT MD  0800   75 78  280/  7/  8 1014.7F
GOOSES REEF MD   0800   77     330/ 10/ 12 1014.8S
COVE POINT MD    0800   75     320/  9/ 10 1014.3R
SOLOMONS ISLAND  0800      80                N/A
BISHOPS HEAD MD  0800   76 80  150/  3/  3 1013.9S
PINEY POINT MD   0800          360/ 11/ 11   N/A
POTOMAC MD       0800   78     320/  6/  8 1013.6S
CAMBRIDGE MD     0800   74 79  160/  3/  4 1013.9S
LEWISETTA VA     0800   76 80  290/  3/  3 1013.8F
RAPPAHANNOCK LGT 0800          160/  7/  7 1014.4F
STINGRAY PT      0800   79     260/  4/  6 1014.8R
YORK RVR RNG VA  0800   80     300/  9/ 10 1013.8R
YORKTOWN VA      0800   79 81  260/  7/  9 1013.9F
JAMESTOWN VA     0800   78     310/ 10/ 12   N/A
DOMINION TERM VA 0800   80     300/ 11/ 12 1014.4S
KIPTOPEKE VA     0800      82  140/  5/  7   N/A
CHES BAY BRIDGE  0800   77 79   80/  7/  9 1013.9F
CAPE HENRY VA    0800   76      90/  9/  9 1013.4S
CHESAPEAKE LGHT  0700   74      60/ 16/ 17 1015.2F
WILLOUBY STN VA  0800   80     310/  6/  7 1013.2S
S CRANEY ISL VA  0800          240/  5/  6 1014.0F
CAPE HENRY BUOY  0800      79                N/A     2/ 6
1ST LANDING BUOY 0800   77     110/ 10/ 12 1014.0F
CAPE CHARLES BUO 0800      78                N/A     2/ 6   2/ 7
OFFSHORE WE BUOY 0800      78                N/A     2/ 6   2/ 6
64NM E OF VA BCH 0800   78 78  130/  2/  2 1013.8F   2/ 6   2/ 6
DUCK PIER NC     0800   81 78  240/  8/  9 1013.7F
44056 DUCK FRF   0800                        N/A     2/ 6
OREGON INLET NC  0800   82 83  230/  6/  6 1014.5F
HATTERAS NC      0800   81 82  240/  4/  6 1015.4F
DIAMOND SHLS NC  0800   81     240/ 10/ 12 1014.8F   2/ 9   2/ 9
CAPE LOOKOUT NC  0700   81     260/  9/ 11 1015.8F
$$



USA.gov is the U.S. government's official web portal to all federal, state and local government web resources and services.